Wind_Speed
24 27 28 30 36 43 45 43 43 44 42 39 36 34 32 31 31 32 31 29 27 26 26 26 27 27 26 26 26 27 28 29 30 30 31 30 29 29 28 28 28 29 31 33 33 32 31 30 29 28 27 25 24 24 24 24 25 26 26 27 29 30 30 31 33 35 36 35 35 35 34 32 32 33 34 34 34 35 36 37 37 38 40 41 42
21 26 28 32 39 42 40 39 43 45 43 40 38 36 34 33 31 31 32 31 30 28 27 28 29 29 29 28 28 28 30 31 31 32 34 33 32 32 31 30 30 31 33 35 35 34 33 33 31 30 29 28 27 26 25 25 25 26 26 27 28 29 30 30 31 33 35 35 35 35 35 34 34 34 34 35 35 35 36 38 38 39 40 40 41
24 29 32 35 37 37 34 35 40 44 44 43 41 38 36 34 32 32 32 33 33 32 31 30 31 32 32 32 31 32 32 33 33 33 34 34 34 34 34 32 32 33 34 35 35 35 34 35 35 33 33 32 31 30 29 28 28 28 28 28 29 30 30 30 31 32 34 35 35 35 36 36 36 36 36 36 37 36 36 38 40 40 40 40 40
27 32 37 38 36 34 35 38 43 49 50 47 44 40 37 36 35 33 33 33 34 35 35 35 35 36 36 36 36 36 37 36 36 35 33 33 34 35 34 34 35 36 36 35 35 35 36 38 38 37 36 36 36 34 32 31 31 31 31 31 31 32 32 32 32 32 33 34 35 35 35 36 37 38 37 37 37 36 37 38 40 40 40 40 40
31 36 40 43 43 42 44 47 50 52 51 48 46 42 39 38 38 37 35 34 34 35 36 37 38 39 39 39 39 38 39 39 38 38 35 33 33 35 34 33 34 36 37 37 36 37 39 41 41 40 39 39 39 39 37 36 35 35 35 34 34 33 34 33 33 33 34 35 35 35 35 36 36 38 38 37 37 36 36 37 38 39 40 40 40
45 48 49 49 49 49 49 49 49 49 47 46 44 42 41 41 41 41 39 38 37 36 37 38 39 39 39 39 39 39 39 39 39 38 36 34 35 36 35 31 30 32 35 36 36 39 42 44 43 42 41 40 41 41 41 40 39 39 39 38 37 35 35 36 35 35 35 35 36 36 35 35 35 36 38 37 37 37 37 36 35 37 40 40 41
51 52 52 52 51 49 47 44 43 44 44 44 43 42 42 43 44 45 44 43 42 41 41 42 42 43 43 43 42 41 41 40 40 40 39 37 38 38 36 34 33 33 34 35 36 39 44 45 43 42 41 42 42 42 42 42 42 43 43 42 41 39 37 38 38 37 37 37 37 37 37 36 36 36 37 37 36 37 38 37 36 38 39 40 41
51 51 52 53 52 50 46 43 40 39 38 38 39 40 41 42 45 47 48 47 46 45 45 46 47 48 48 48 48 47 47 46 46 46 45 44 44 43 41 40 40 40 41 41 41 43 44 43 43 42 41 42 42 43 43 43 44 46 46 45 44 42 41 41 41 40 40 40 39 40 39 39 39 38 38 38 37 37 38 37 37 39 41 40 41
51 50 50 50 48 48 47 45 43 40 38 36 36 36 37 39 41 44 47 48 48 48 48 49 48 48 49 51 52 52 52 52 53 53 51 49 49 48 45 44 44 44 44 45 45 45 44 41 41 42 41 43 45 46 47 47 48 48 48 47 46 43 43 44 45 44 43 43 43 43 42 41 41 41 41 40 39 38 38 38 38 40 41 41 42
53 53 52 50 47 46 45 44 43 42 40 36 34 33 34 35 37 39 42 45 47 48 48 49 49 49 50 51 53 54 54 54 54 54 53 51 50 49 47 46 46 45 44 45 47 48 45 43 43 44 44 47 49 50 52 52 51 50 49 48 47 44 45 47 47 47 46 46 45 45 44 43 43 43 42 42 42 41 41 41 41 43 44 44 45
53 54 53 52 49 48 46 45 43 42 39 36 34 33 34 35 35 35 36 38 41 43 45 46 47 48 49 49 50 52 52 52 52 52 51 50 48 47 47 47 47 46 45 46 47 48 46 45 46 48 48 50 51 52 53 53 52 51 50 49 47 46 47 49 49 50 49 49 48 47 47 47 47 46 45 44 44 43 43 43 43 45 47 48 48
52 52 52 51 49 47 45 44 42 41 40 38 36 36 35 34 33 33 33 33 34 36 38 40 41 42 43 45 46 47 47 48 49 49 48 48 47 46 47 48 48 48 49 49 50 50 49 48 49 50 51 52 53 54 55 56 56 56 54 51 49 48 50 51 52 53 53 52 51 50 50 50 49 49 49 48 47 47 47 46 46 46 49 50 50
50 50 49 47 46 45 44 45 44 44 42 41 40 39 38 37 37 38 38 36 35 35 36 37 38 38 38 39 41 42 43 45 47 48 48 47 47 47 47 48 49 50 52 52 52 53 53 52 52 53 55 56 58 59 60 60 60 59 55 52 50 50 53 54 56 57 57 56 54 53 54 53 51 50 51 50 50 50 50 51 50 50 51 52 53
47 46 45 44 44 45 46 47 47 47 46 45 43 43 43 42 41 41 40 38 39 39 38 38 38 37 36 37 39 41 43 44 45 47 48 48 49 48 48 47 48 50 53 53 53 54 55 56 56 57 59 61 62 63 63 61 60 59 57 55 54 54 55 57 58 59 59 59 57 57 58 57 54 52 51 52 54 54 53 54 55 55 56 56 56
44 44 44 44 44 45 45 46 47 47 47 46 46 47 47 47 45 45 44 43 43 43 42 40 40 40 40 41 42 43 45 46 47 47 48 49 49 50 50 49 48 49 52 54 55 56 56 57 58 59 60 62 63 64 62 60 59 59 60 61 61 60 59 59 59 59 60 61 61 60 62 62 59 56 54 56 59 59 58 58 58 59 60 61 61
45 45 45 45 46 46 46 46 47 47 47 47 48 48 49 49 49 49 49 49 49 48 47 46 46 47 48 49 50 49 48 48 49 50 51 52 52 52 52 51 50 50 51 53 56 58 59 58 59 60 61 62 63 62 61 59 59 61 64 65 66 64 62 62 61 60 62 64 64 64 64 65 65 64 62 63 64 63 62 62 62 63 65 66 66
47 47 47 47 48 48 47 48 48 48 49 49 49 50 51 51 51 51 51 52 52 52 51 51 51 50 51 52 53 53 53 53 54 54 54 54 55 56 56 56 56 55 53 53 55 58 61 61 61 61 61 61 62 63 62 62 63 65 67 69 68 66 64 64 64 64 66 67 67 67 67 68 69 70 69 69 70 70 68 66 67 68 68 69 71
48 48 48 49 49 49 49 50 50 51 51 51 51 51 51 52 52 52 53 54 54 54 55 55 55 55 56 57 57 57 58 59 60 59 58 57 57 58 58 59 59 59 59 58 58 58 60 61 61 61 62 62 64 65 66 66 67 69 70 70 69 68 67 67 66 67 69 70 70 70 70 70 72 73 73 73 74 75 75 73 72 72 72 72 73
49 49 50 50 50 50 51 52 52 53 53 53 53 53 53 54 55 55 56 57 57 58 58 59 59 60 61 62 63 63 63 63 63 62 62 63 62 62 63 63 63 63 64 64 63 63 64 64 63 63 63 65 66 68 69 69 69 70 70 70 69 69 70 70 70 70 71 73 74 74 73 73 74 76 77 76 76 77 78 78 78 78 77 77 76
50 51 51 51 52 53 53 54 54 55 56 57 57 57 58 58 59 60 61 61 62 62 62 62 63 64 64 65 66 66 67 67 67 67 67 68 68 68 68 68 68 68 68 68 68 68 69 69 68 68 67 67 68 69 70 70 70 70 71 71 70 70 70 72 73 74 74 75 76 77 77 77 77 78 79 79 79 80 80 81 81 82 82 81 80
52 53 54 54 55 55 56 57 58 59 60 60 61 61 62 62 63 63 64 65 65 66 66 66 65 65 65 64 64 64 65 66 67 68 69 70 71 71 71 71 70 70 70 70 71 71 72 72 72 73 73 73 72 72 72 72 72 72 72 73 73 73 73 74 75 76 76 77 78 79 80 80 80 80 81 81 82 82 83 83 83 83 84 84 84
55 56 56 57 58 58 59 60 61 61 62 62 62 62 62 62 62 62 63 63 64 64 63 63 62 61 60 60 59 60 60 61 62 63 64 66 67 69 70 71 72 72 72 72 72 73 74 75 75 76 76 77 77 77 77 76 76 75 75 76 76 76 77 77 78 78 78 78 79 80 80 81 80 81 81 82 82 83 83 84 84 84 85 86 87
56 57 57 58 58 59 60 61 61 61 61 60 60 60 59 59 59 59 59 59 59 59 59 58 58 59 59 59 60 61 62 63 64 64 65 65 66 66 67 68 70 71 71 72 72 73 74 75 76 77 78 79 80 80 81 81 81 81 80 80 80 80 80 80 79 79 79 80 81 82 83 83 82 82 82 83 83 83 83 83 84 85 86 88 89
57 57 58 59 60 60 60 60 60 60 60 59 59 59 58 58 58 58 58 58 58 58 59 59 60 61 62 63 65 67 68 69 69 70 70 70 71 71 71 70 71 71 72 72 73 73 74 74 75 76 78 79 80 81 82 83 83 84 84 85 85 85 84 84 84 83 83 83 83 84 85 86 86 87 87 88 88 88 87 87 87 88 88 88 88
59 59 60 61 61 61 60 60 60 60 60 61 61 61 61 61 61 62 62 62 62 63 64 64 65 67 68 69 70 71 73 74 75 76 76 77 77 77 77 76 76 76 76 76 77 77 77 78 78 78 79 79 80 81 82 83 83 84 85 85 86 86 87 87 87 87 88 88 88 88 89 90 90 91 92 93 93 93 93 93 92 92 91 90 89
61 62 62 62 62 62 61 61 62 62 62 63 63 64 64 65 66 67 67 68 68 69 70 70 71 72 74 75 76 77 78 79 80 81 81 82 82 82 82 82 82 82 82 82 82 82 83 83 83 84 84 84 84 84 84 85 85 85 85 86 86 87 87 87 88 88 89 90 90 91 92 92 93 94 94 95 95 96 96 96 96 96 95 95 94
62 62 62 62 63 63 63 63 64 65 65 66 67 68 69 70 70 71 72 73 73 74 75 75 76 77 78 80 81 82 83 84 85 85 86 86 86 86 86 86 86 86 87 87 87 87 87 88 88 89 89 89 90 90 90 90 90 90 90 90 90 90 90 90 90 90 91 91 92 92 93 94 94 95 96 96 97 97 98 98 98 98 98 98 98
63 64 64 65 65 66 67 67 68 69 70 70 71 72 73 74 75 76 76 77 78 78 79 79 80 81 82 83 84 85 86 87 87 88 88 88 88 88 89 89 89 89 89 90 90 90 91 91 92 92 93 93 94 94 95 95 95 96 96 96 96 96 96 96 96 96 96 96 96 96 96 96 97 97 98 98 98 99 99 100 100 100 101 101 101
66 67 67 68 69 70 71 71 72 72 73 74 75 75 76 76 77 78 79 80 81 81 82 82 83 83 84 85 85 85 86 86 86 86 86 85 85 85 85 85 85 85 86 86 87 87 88 89 89 90 91 92 93 94 95 96 97 97 98 99 99 100 100 101 101 101 101 101 101 101 101 101 101 101 101 101 102 102 103 103 103 104 104 104 104
69 70 71 72 72 73 73 74 75 75 75 76 76 77 78 79 79 80 80 81 82 83 82 82 82 82 81 81 81 81 80 80 80 79 79 78 78 78 78 78 78 79 79 79 80 81 82 83 84 85 86 87 88 89 91 92 93 95 96 97 98 99 99 100 101 101 102 102 103 103 104 104 105 105 105 105 105 105 105 106 106 107 107 107 107
71 72 73 74 74 75 75 75 76 76 77 77 77 77 78 79 80 80 80 79 78 78 77 77 76 76 75 75 75 75 75 75 75 75 75 75 75 75 75 76 76 76 77 77 78 78 79 81 82 83 84 84 85 86 87 88 89 90 91 92 94 94 95 96 97 97 98 98 99 100 101 102 103 104 105 106 107 107 108 108 108 108 109 109 109
72 73 74 74 75 75 75 76 77 78 78 78 78 76 75 74 74 74 74 74 74 73 72 72 72 72 73 74 74 75 75 75 76 76 76 76 77 77 77 78 78 78 79 79 79 80 81 82 83 83 84 84 84 85 87 87 88 88 89 90 91 91 91 91 92 93 93 93 94 95 95 96 97 99 100 101 103 105 106 108 109 109 110 110 110
73 73 74 74 75 76 76 77 77 76 76 75 74 73 72 71 69 69 69 71 72 73 73 73 73 74 75 76 77 77 78 78 79 79 79 80 80 80 81 81 81 81 82 82 82 82 83 84 84 85 86 86 86 86 87 88 88 89 89 89 89 90 90 90 90 89 89 89 89 90 91 91 92 93 94 96 97 98 100 102 104 106 107 109 110
73 74 75 76 76 76 75 74 73 72 71 71 72 72 72 72 72 72 71 71 72 74 76 77 77 77 78 80 80 80 81 82 82 82 82 83 83 83 83 83 84 84 84 84 84 84 85 86 86 86 87 88 88 87 88 88 89 89 90 90 89 89 89 90 90 90 88 87 87 88 88 88 88 89 90 91 92 94 94 95 97 99 101 103 105
75 75 74 74 73 72 71 70 70 70 71 72 73 74 75 76 77 78 78 77 76 76 76 77 78 78 79 81 82 82 84 85 83 82 83 84 85 85 85 85 86 86 86 85 86 86 86 86 87 88 88 88 89 89 89 89 90 90 90 91 90 90 89 90 90 91 90 89 89 89 89 88 87 87 88 88 89 90 91 91 92 94 95 97 98
74 72 70 70 70 70 71 72 72 73 74 76 77 78 79 80 80 81 82 82 82 80 79 79 78 77 77 79 79 80 84 86 84 82 82 84 85 86 86 87 87 88 87 87 87 88 88 87 87 88 88 88 89 89 89 90 90 91 91 91 91 91 90 90 90 90 90 90 89 89 89 89 88 88 87 87 87 88 88 88 89 90 92 93 94
71 70 70 70 71 72 74 75 76 77 78 79 80 81 82 83 83 84 84 84 85 84 83 83 81 79 78 77 74 75 81 86 86 84 84 85 85 87 88 89 89 89 89 88 88 88 88 88 88 88 88 88 88 87 88 88 89 90 90 90 90 89 89 89 89 89 88 88 87 86 86 87 87 86 86 86 86 86 86 86 86 87 88 90 91
71 71 72 73 74 76 77 78 79 80 81 82 83 84 84 84 85 85 85 85 85 86 85 86 85 83 82 79 76 75 79 84 86 86 86 86 86 87 88 89 90 90 90 89 89 88 88 88 87 87 86 86 86 85 85 85 86 86 86 86 87 87 86 85 85 85 85 84 84 84 84 83 83 83 83 83 84 84 84 84 83 83 84 85 87
73 74 75 76 76 78 79 81 82 83 84 84 85 85 85 85 86 86 87 87 87 87 87 88 87 86 85 84 82 80 80 83 86 87 86 86 86 86 86 88 88 88 88 88 87 87 87 86 85 85 84 83 82 82 82 82 82 82 82 81 82 82 82 82 82 81 80 80 81 81 81 81 81 81 81 81 81 81 82 82 82 81 81 82 83
75 76 78 79 79 79 80 81 83 84 85 86 86 86 87 87 88 88 89 89 89 90 90 90 89 88 87 87 86 83 82 83 86 86 86 85 85 84 84 84 84 84 84 83 84 84 83 82 82 82 81 80 79 79 78 78 78 78 78 77 77 78 78 78 78 78 78 78 78 78 78 79 79 80 80 80 80 80 80 81 81 81 80 80 80
78 78 79 80 81 82 82 82 82 83 84 86 88 89 90 90 91 91 91 90 91 92 92 92 91 90 89 87 86 83 82 83 84 84 84 83 82 81 81 81 80 79 79 78 79 79 79 78 78 78 77 76 76 76 75 75 75 75 75 75 75 75 75 75 75 74 74 75 76 77 76 76 76 77 78 78 79 79 79 80 80 80 80 80 80
80 80 80 80 81 82 84 84 84 85 85 86 87 89 90 92 93 94 94 93 92 92 93 93 92 91 90 87 84 82 80 79 80 80 80 79 78 78 77 77 76 75 74 74 75 74 74 74 75 74 73 73 72 72 72 72 72 72 73 73 73 73 73 73 73 72 72 72 73 74 74 74 74 74 74 74 75 76 77 77 78 78 78 79 79
82 82 83 83 83 84 85 86 87 87 87 87 88 89 90 92 93 95 95 94 93 93 92 91 91 91 89 87 84 81 78 76 74 73 73 73 73 73 73 72 71 70 70 71 71 70 70 71 71 70 69 69 69 68 69 69 69 69 70 70 71 72 71 71 71 70 70 70 70 70 71 71 71 71 71 70 71 71 72 73 73 74 75 75 76
84 86 86 86 87 87 88 88 89 89 89 89 89 89 90 91 92 94 94 93 92 91 90 90 90 89 88 86 83 79 74 71 68 68 67 67 67 68 69 68 67 66 67 68 68 67 67 67 67 66 66 66 65 65 65 65 66 67 67 68 69 69 68 68 68 68 68 68 67 67 67 67 67 67 67 67 66 67 67 68 69 69 70 71 71
84 86 88 89 89 90 90 91 91 91 91 91 90 89 89 89 90 91 92 90 89 88 88 89 89 87 85 84 81 75 69 65 64 63 63 62 62 64 67 67 66 65 66 66 66 65 64 64 64 64 63 62 62 62 62 62 63 63 63 64 66 65 64 64 64 65 65 65 64 64 63 63 63 63 63 63 64 64 64 65 65 65 66 66 66
85 88 89 91 92 93 94 94 94 93 93 92 91 90 88 87 87 87 86 85 84 84 84 85 85 84 82 81 77 71 65 63 62 61 60 59 59 60 63 66 65 65 65 65 64 63 63 62 62 61 61 60 60 59 59 60 60 60 60 62 63 62 61 61 62 62 62 62 62 61 60 60 60 60 60 61 62 62 62 62 62 62 62 62 61
91 93 94 95 95 95 96 97 96 94 92 93 93 91 88 86 85 84 82 80 80 80 78 78 80 81 79 77 74 68 64 62 61 59 58 58 58 58 60 63 64 64 64 64 64 62 61 60 60 60 59 59 59 58 58 58 57 57 58 60 61 60 60 60 61 60 60 60 60 59 58 58 58 58 58 59 60 60 60 59 60 60 59 58 58
97 98 99 99 98 97 97 98 98 96 94 94 95 93 90 87 84 82 79 78 78 76 73 73 75 76 75 74 71 67 64 62 61 59 57 57 57 58 59 60 62 62 62 63 63 62 60 58 58 58 58 59 58 57 56 56 55 55 57 59 59 59 59 59 59 59 59 59 58 58 57 56 56 56 57 57 58 58 57 57 59 59 57 55 55
101 102 102 101 100 99 98 98 98 97 95 95 95 94 92 89 85 81 78 78 76 74 71 71 72 72 71 70 68 66 64 61 60 58 57 57 56 56 57 58 59 60 60 60 61 61 60 58 57 57 57 57 57 56 55 54 53 55 57 58 58 58 57 57 56 56 56 57 57 57 56 55 55 55 55 55 55 55 55 55 57 57 55 52 52
101 102 102 102 101 100 99 98 98 97 96 95 94 93 92 90 85 79 76 75 74 72 71 71 69 68 67 66 65 64 63 61 59 57 57 56 56 56 55 56 56 57 57 58 58 59 60 59 59 57 56 56 56 56 54 53 54 55 55 55 56 56 56 55 54 54 55 55 56 56 55 54 53 54 53 52 52 52 53 53 53 53 51 50 49
101 101 101 101 100 99 98 98 97 96 95 94 93 92 91 88 83 78 74 72 71 70 70 69 67 65 64 63 63 63 62 60 59 57 56 56 56 56 56 55 55 55 55 56 56 57 58 59 59 58 56 55 55 55 54 54 54 54 54 54 54 55 55 54 54 54 54 54 54 54 53 52 52 53 52 50 48 49 50 49 48 47 47 47 45
Wind_Direction
304 304 300 288 285 297 303 299 296 299 299 297 294 290 288 287 289 292 292 292 292 292 290 288 288 288 290 293 297 299 301 303 306 311 314 316 316 313 311 308 308 310 313 316 320 323 323 322 321 319 317 313 310 307 305 303 302 301 301 301 300 299 297 296 293 291 289 288 286 286 286 285 285 285 286 287 287 287 287 288 289 289 290 292 293
306 302 296 287 288 298 302 297 296 298 296 294 291 287 282 279 281 287 289 289 289 288 286 286 286 286 287 288 291 295 297 299 303 307 311 312 312 312 311 308 306 307 309 311 313 317 319 319 318 317 315 314 313 311 310 308 307 307 306 305 303 302 301 300 298 295 293 292 290 287 286 285 284 283 284 285 285 284 284 285 287 288 289 291 293
296 291 289 287 292 298 295 290 291 292 292 291 287 283 278 274 276 284 288 289 289 288 287 286 285 285 285 285 287 289 293 295 298 301 305 307 309 309 309 308 306 304 303 306 308 310 314 316 315 314 313 312 312 312 311 311 310 310 309 308 307 306 305 305 304 301 299 297 294 291 288 286 285 285 285 285 285 284 283 284 285 287 289 291 293
285 282 281 280 281 281 277 277 282 286 288 288 285 280 275 271 273 279 285 286 285 285 287 288 287 287 286 285 285 287 290 292 293 295 298 300 304 307 306 306 306 303 299 299 302 305 309 312 312 311 310 309 310 310 310 310 311 311 311 311 311 309 308 306 305 305 304 301 298 295 291 289 287 287 287 286 286 286 286 286 288 289 290 291 292
271 274 276 274 272 272 274 277 280 284 286 286 283 279 272 269 270 274 278 281 281 280 280 282 285 286 287 286 286 286 287 287 288 290 291 293 296 300 301 303 308 308 300 294 296 299 303 307 308 307 306 307 307 307 308 309 309 309 310 311 311 311 311 309 307 305 305 304 302 300 296 293 290 289 288 287 287 287 285 285 287 289 290 290 290
268 272 274 275 275 277 280 281 283 286 287 286 284 279 272 269 269 270 272 273 274 274 273 274 277 280 283 285 286 286 285 285 285 286 287 288 290 292 291 292 298 303 300 294 293 297 300 303 304 303 303 303 303 304 305 305 306 307 308 309 309 310 310 310 309 307 305 304 304 303 301 298 295 292 291 290 290 288 286 286 286 286 286 288 289
271 273 274 275 277 280 284 287 287 289 289 288 286 282 276 271 269 269 270 270 269 269 270 271 272 276 279 281 284 284 283 283 283 284 285 286 284 283 282 280 280 285 290 290 290 293 297 299 299 299 299 300 300 300 301 301 302 303 304 306 307 307 306 307 308 307 305 303 301 301 300 301 299 297 295 294 292 290 289 290 290 287 286 287 287
272 274 275 276 277 277 280 285 287 290 292 292 290 286 281 276 272 270 271 271 270 269 269 271 273 276 278 280 282 283 284 284 284 284 285 286 284 282 279 277 275 275 278 281 283 287 291 293 294 294 294 295 296 296 296 296 297 299 300 301 303 303 303 302 303 305 304 302 299 298 297 297 297 295 295 294 292 291 291 291 290 288 288 288 288
270 272 274 276 276 275 275 277 279 283 289 294 296 294 289 283 279 276 274 274 274 272 271 271 272 275 278 280 281 283 284 285 285 285 285 286 287 286 282 278 275 275 276 277 279 282 285 287 287 287 287 288 288 289 290 290 291 294 296 297 298 299 299 298 298 300 302 301 298 296 295 294 293 292 292 291 290 289 288 288 288 287 288 289 289
268 270 272 274 276 277 277 277 278 280 284 289 292 293 290 287 285 283 280 278 277 277 275 273 272 273 277 280 282 282 283 283 283 284 285 285 285 285 282 277 274 274 275 276 278 279 281 283 282 281 282 284 285 286 286 287 288 291 293 294 295 295 294 293 294 296 299 299 296 294 293 292 291 291 291 292 291 290 288 287 287 286 286 286 285
268 270 271 272 274 276 278 280 281 281 281 283 283 283 285 286 287 288 287 285 284 282 280 279 277 276 278 280 281 281 282 281 281 281 281 282 282 282 280 277 274 273 273 274 276 278 279 279 280 280 281 282 283 284 284 285 287 289 290 291 291 290 290 291 292 294 295 296 295 293 291 290 289 290 291 291 292 292 290 289 288 287 286 286 285
270 271 272 272 272 274 276 279 280 279 279 278 277 277 278 281 284 285 286 287 288 287 284 282 281 281 281 281 280 280 281 281 281 280 279 280 280 280 280 278 276 273 272 272 275 277 277 276 276 278 279 279 280 281 282 283 285 287 288 288 288 287 288 291 292 293 293 294 294 293 290 288 287 288 289 289 291 291 291 291 290 290 289 288 287
273 273 274 273 272 272 274 277 278 279 278 276 275 274 274 275 277 278 279 281 281 282 283 283 281 280 280 279 279 279 280 281 280 280 279 279 279 280 280 278 275 273 273 273 274 275 276 275 275 275 276 277 279 281 282 284 286 288 288 289 289 288 289 291 292 292 293 293 293 292 289 287 287 286 287 288 289 290 291 293 292 292 291 291 290
272 273 274 274 273 272 274 276 278 278 278 277 275 274 273 274 274 273 275 278 278 278 280 280 278 275 273 272 273 275 277 279 279 279 279 279 278 279 279 278 275 273 273 274 275 275 276 276 276 276 277 279 280 282 284 285 287 287 287 289 290 290 290 290 291 291 291 291 290 290 289 289 288 287 286 288 290 291 292 292 292 293 293 293 292
269 270 272 273 273 274 275 276 278 279 279 279 277 276 276 276 274 273 274 276 276 276 277 276 274 271 269 268 272 274 274 275 277 278 279 279 278 278 278 277 276 273 272 272 272 274 275 275 276 276 277 279 280 282 284 284 284 283 284 286 288 289 289 289 288 287 287 287 287 288 289 289 289 287 287 288 290 291 292 292 293 294 294 294 294
270 270 271 272 273 274 275 276 277 278 279 279 279 278 278 277 276 276 276 275 274 274 275 275 274 273 271 270 271 273 273 273 274 276 277 277 277 277 276 276 275 273 271 270 269 269 270 271 272 273 275 276 277 278 279 279 278 279 281 283 285 287 288 288 286 284 283 284 285 286 288 288 288 288 289 289 289 289 290 292 294 295 295 295 295
272 272 272 273 273 274 275 276 277 279 279 279 278 278 278 277 277 276 276 276 275 274 274 274 274 274 274 273 272 271 271 272 273 275 275 275 275 275 275 275 274 273 272 270 269 268 268 268 269 271 272 272 273 274 275 275 276 277 279 282 284 285 285 285 285 284 283 283 284 285 286 286 287 287 288 288 288 289 290 291 292 293 294 294 294
275 275 275 275 275 275 276 277 278 279 279 279 278 277 277 276 277 276 276 276 276 275 274 274 273 272 273 274 273 273 272 273 274 274 273 273 274 274 273 274 274 273 272 271 270 269 268 267 267 267 268 269 269 271 272 274 275 276 277 279 280 281 282 282 282 282 282 282 283 283 283 284 284 285 285 286 287 289 290 290 291 291 292 292 293
277 277 278 278 277 277 278 278 279 279 279 278 278 277 276 275 275 275 276 276 276 276 275 275 274 273 272 272 272 272 272 273 273 273 272 272 273 273 273 273 273 273 272 271 270 269 269 268 268 266 266 266 267 269 270 272 273 274 275 276 276 277 278 279 280 280 280 281 282 282 282 282 282 283 284 285 285 286 288 289 289 290 290 291 291
279 279 279 279 279 279 278 278 278 279 279 279 278 278 277 276 276 276 276 277 277 277 277 277 277 276 275 274 273 273 272 273 273 272 272 272 273 274 274 274 274 273 272 271 270 269 269 269 269 268 267 267 267 267 268 269 269 270 271 272 273 274 274 276 277 278 279 280 280 281 282 282 282 282 283 283 284 284 285 286 287 288 288 289 290
279 279 279 279 279 279 279 279 279 279 280 280 280 280 280 279 279 278 278 279 279 279 280 280 280 279 278 277 276 276 276 275 275 275 274 274 274 275 275 275 274 274 274 273 272 271 271 270 270 269 269 269 268 268 268 268 268 268 269 269 270 271 272 273 274 275 276 277 277 278 279 280 280 280 281 281 282 283 284 284 285 285 286 287 288
278 279 279 279 279 280 280 281 281 281 281 282 282 282 282 282 282 281 281 281 281 281 281 280 280 279 278 278 277 278 278 278 278 278 278 277 277 276 276 275 275 275 275 274 274 273 273 272 272 271 271 270 270 270 269 269 269 268 268 268 269 269 270 270 271 271 272 272 273 274 275 276 277 277 278 279 280 281 282 282 283 283 284 285 286
279 280 280 280 281 282 283 283 283 283 283 283 284 284 284 284 283 283 282 282 282 282 281 280 279 278 277 277 278 278 279 279 280 280 280 280 279 279 278 277 276 275 275 274 274 274 273 273 273 272 272 272 271 271 271 271 270 269 269 269 269 269 269 269 269 269 269 269 269 270 271 271 272 273 274 275 277 278 279 279 280 281 282 283 284
282 283 283 284 284 285 285 285 285 284 283 284 284 284 284 284 283 283 282 282 281 281 281 280 279 278 277 277 278 279 279 280 280 280 280 280 280 280 279 278 278 277 276 275 274 274 273 273 273 272 272 272 272 272 272 272 271 271 271 270 270 270 270 270 269 269 269 268 268 268 269 269 270 271 271 272 273 274 275 276 278 279 280 281 282
285 285 286 286 286 286 286 286 286 285 285 284 284 284 283 283 283 283 282 281 281 280 280 279 279 279 278 278 278 279 279 280 280 280 281 281 281 280 280 280 279 278 277 276 275 275 274 274 273 272 272 272 271 271 271 271 271 271 271 271 271 271 271 271 270 270 270 269 269 269 269 269 270 270 271 272 272 273 274 274 275 276 277 278 279
287 287 287 287 287 287 287 286 286 286 285 285 285 284 284 283 283 283 283 282 282 281 281 280 280 280 280 280 280 280 280 281 281 281 281 281 281 281 280 280 280 279 278 278 277 276 275 275 274 274 273 272 272 271 271 270 270 270 270 270 270 270 270 270 270 270 270 270 270 270 270 270 271 271 272 273 273 274 274 275 275 275 276 276 277
288 287 287 287 287 287 287 286 286 286 285 285 285 285 285 285 284 284 284 283 283 282 282 281 281 281 281 281 281 281 282 282 282 282 282 282 281 281 281 280 280 280 279 278 278 277 277 276 275 275 274 273 273 272 271 271 270 270 270 269 269 269 269 269 269 269 270 270 270 270 271 271 271 271 272 273 273 274 275 275 276 276 276 276 276
287 287 287 286 286 286 286 286 286 286 286 286 286 286 286 286 286 285 285 284 284 283 283 283 282 282 282 282 282 282 282 282 282 282 282 282 282 282 282 281 280 280 279 279 278 278 277 277 276 276 275 274 274 273 273 272 271 271 270 270 270 270 269 269 269 269 269 269 269 270 270 270 271 271 272 272 273 273 274 274 275 275 276 276 276
287 286 287 287 287 287 287 287 287 287 287 287 287 286 286 286 286 286 285 285 285 285 285 285 285 284 284 284 284 284 284 284 284 284 283 283 283 283 282 282 281 280 280 279 279 278 278 277 277 276 275 275 274 274 273 273 272 272 272 271 271 271 270 270 270 270 269 269 269 269 269 270 270 270 271 271 272 272 273 274 274 275 275 276 276
287 287 287 287 287 287 287 287 287 287 287 287 287 287 287 287 287 287 286 287 287 287 287 287 287 287 287 287 287 286 286 286 285 285 285 284 284 283 283 282 282 281 281 280 279 279 278 277 277 276 275 275 274 274 274 273 273 273 272 272 272 272 272 272 271 271 271 271 270 270 270 270 270 270 270 270 271 272 272 273 274 274 275 276 276
288 288 288 288 288 288 288 288 288 288 288 288 288 288 288 289 289 289 289 289 288 288 289 289 289 289 289 289 289 288 288 288 288 287 287 286 285 285 284 283 282 281 281 280 279 279 278 278 277 276 276 275 275 275 274 274 273 273 273 273 273 273 273 272 272 272 272 272 272 271 271 271 270 270 270 270 270 271 271 272 272 273 274 275 276
288 288 289 289 289 289 289 290 290 290 290 290 290 290 290 289 290 290 291 291 291 291 291 291 291 292 292 291 291 291 290 290 289 289 288 287 287 286 285 284 282 281 280 280 279 278 278 277 277 276 276 276 275 275 275 275 275 275 274 274 274 274 274 274 274 274 273 273 273 273 272 272 272 271 271 270 270 270 270 271 271 272 272 273 274
289 290 290 290 291 291 291 292 292 292 292 292 292 292 292 291 290 290 291 292 293 294 294 294 294 294 293 293 292 292 292 291 290 289 288 288 287 285 284 283 282 281 281 280 279 278 278 277 277 276 276 276 276 276 276 276 276 276 276 276 276 276 276 276 276 276 275 275 275 274 274 273 273 273 272 272 271 271 270 270 271 271 271 272 272
292 292 292 293 293 293 293 293 293 294 294 294 294 294 294 294 294 293 293 293 293 294 294 295 294 295 294 294 293 293 292 291 290 289 288 287 286 285 284 283 282 281 280 280 279 279 278 278 277 277 277 277 277 276 276 276 276 277 277 277 277 278 278 278 278 279 278 278 277 277 276 275 274 274 273 273 272 272 271 271 271 271 271 271 272
293 294 294 294 294 294 294 294 294 295 295 295 296 296 296 296 297 296 296 296 295 294 294 294 294 294 294 294 294 294 292 290 289 288 287 286 285 284 283 282 281 280 280 279 279 278 278 278 278 277 277 277 278 278 278 277 277 278 278 278 278 279 279 279 279 279 279 279 279 279 278 278 277 276 275 274 273 273 272 272 272 271 271 271 272
294 294 294 294 295 295 295 296 296 296 297 297 297 297 297 297 298 298 298 297 297 296 295 294 293 293 292 291 292 293 292 290 289 287 286 285 284 283 282 282 281 280 280 280 279 279 279 279 278 278 278 278 278 278 278 278 278 278 278 279 279 279 279 279 279 279 279 279 279 278 278 278 278 277 277 276 275 274 274 273 273 272 272 272 272
295 295 295 296 296 296 297 297 297 297 298 298 298 298 298 298 298 298 298 298 297 297 297 296 295 294 292 291 291 292 292 291 289 288 286 285 284 284 283 283 282 282 281 281 280 280 280 280 279 279 279 279 278 278 278 278 278 278 279 279 279 279 279 279 279 279 279 279 279 278 278 277 278 278 277 277 277 276 275 275 274 273 273 274 274
295 296 297 297 297 298 298 298 298 298 298 298 298 298 298 299 299 298 298 298 298 299 299 298 298 297 296 294 293 291 290 289 288 287 286 285 285 285 284 284 284 284 283 283 282 282 281 281 280 280 279 279 279 279 278 278 278 278 278 278 279 279 279 278 278 278 278 278 279 278 278 278 278 278 278 277 277 277 277 277 276 275 275 275 275
296 297 297 298 298 298 298 298 298 298 298 298 298 299 299 299 299 300 300 300 300 300 300 300 299 299 298 298 296 294 292 290 288 287 287 286 286 285 285 285 285 285 285 285 285 284 283 283 283 282 281 281 281 280 279 279 278 278 278 278 278 278 278 278 278 278 278 278 277 278 278 278 278 278 278 278 278 278 278 278 278 277 276 276 276
297 297 297 297 297 297 297 297 297 298 299 299 300 300 301 301 301 301 301 301 301 301 301 301 300 300 299 299 297 296 295 293 291 290 289 289 288 287 286 285 285 285 285 285 285 284 284 284 284 284 283 283 283 282 281 281 280 280 279 278 278 277 277 277 277 277 278 277 277 277 277 277 278 278 278 279 279 279 279 279 279 279 279 278 278
297 296 297 297 297 297 298 298 298 299 300 300 300 301 301 301 301 301 301 301 302 302 301 301 301 300 299 298 297 296 295 294 293 292 291 290 290 289 288 287 286 286 286 285 285 285 285 285 284 284 284 284 283 283 283 282 282 281 280 279 279 278 278 277 277 277 277 277 277 277 277 277 277 277 277 278 278 279 279 279 279 280 280 280 280
296 296 297 297 297 298 298 299 299 299 299 299 300 300 300 301 301 301 301 301 301 301 301 301 301 300 299 298 297 296 295 294 293 293 292 291 290 289 288 288 287 287 286 285 285 285 285 284 284 284 284 283 283 283 283 283 282 282 281 281 280 280 279 279 279 279 278 278 278 278 278 278 278 277 277 277 277 278 278 278 279 279 279 279 279
297 298 298 298 298 299 299 299 299 299 299 299 299 299 299 299 299 300 300 300 301 301 301 301 300 300 299 298 297 296 295 295 294 293 292 291 290 289 288 288 288 288 287 286 286 285 285 285 285 285 284 284 284 283 283 283 282 282 282 281 281 281 281 281 281 281 280 279 279 278 278 278 279 278 278 278 277 277 277 277 277 277 278 278 278
299 299 299 300 300 299 299 299 299 299 298 298 298 298 298 298 298 298 299 300 300 301 301 301 300 299 298 297 297 296 296 295 295 294 292 292 291 290 289 288 288 287 287 286 286 286 286 285 286 285 285 285 284 284 283 283 283 282 282 282 282 282 282 283 283 282 282 281 281 280 280 279 280 280 279 279 278 278 277 276 276 276 276 277 277
298 298 298 299 299 299 298 298 298 297 297 297 297 297 297 297 297 298 298 299 299 300 300 300 299 298 297 297 296 296 296 296 295 294 293 292 292 291 290 289 289 288 287 287 287 287 287 287 287 287 287 287 286 285 285 284 284 284 284 284 283 283 283 283 283 282 282 282 282 282 282 282 282 281 281 281 280 279 278 278 278 278 278 278 278
298 298 298 298 298 299 299 298 298 298 298 298 298 297 297 297 297 297 297 298 298 298 298 298 298 297 297 296 296 296 297 297 296 294 293 291 290 289 288 288 288 288 288 288 289 289 289 289 289 289 288 288 287 287 286 285 285 286 285 284 283 284 283 283 282 282 282 283 283 284 284 283 283 283 283 282 281 281 281 281 281 280 280 280 280
300 300 300 299 299 300 299 299 299 299 299 300 299 299 298 298 298 297 296 297 296 296 297 297 297 297 296 296 296 297 298 297 296 295 293 292 291 289 287 287 288 289 289 289 290 290 290 290 289 289 289 288 287 287 286 286 286 286 285 283 283 283 283 282 282 282 283 283 284 284 284 284 283 283 282 282 282 282 283 283 283 282 281 281 281
301 301 301 300 300 300 300 300 300 301 302 302 301 301 300 300 298 297 297 297 296 296 296 297 296 295 295 295 296 297 297 296 296 295 294 293 292 290 289 289 289 290 290 290 290 291 291 290 289 289 288 288 287 287 286 286 286 285 283 282 282 282 282 282 283 283 283 284 284 284 283 283 283 283 282 282 282 283 283 283 282 281 281 282 282
301 301 301 301 301 301 301 301 302 302 303 302 302 302 301 300 298 298 299 299 298 298 297 296 295 294 295 296 296 296 296 296 295 295 295 293 292 292 291 291 291 291 291 291 291 291 291 290 289 288 288 288 288 287 286 286 286 285 284 284 284 284 283 283 283 283 282 282 282 282 282 283 283 283 282 282 282 282 282 281 280 281 282 283 284
300 300 300 301 301 301 302 302 302 303 302 302 302 301 300 299 298 299 300 299 299 298 297 295 294 295 295 295 296 295 295 295 295 295 295 294 293 293 293 292 292 291 291 290 290 290 290 290 289 289 289 288 288 288 288 288 287 286 286 286 286 285 284 284 283 282 282 281 281 282 283 283 283 282 282 281 281 281 281 280 281 282 284 284 284
299 300 300 300 301 301 302 302 302 302 302 302 301 300 298 298 299 300 300 299 298 297 295 294 295 295 295 295 295 294 294 294 295 295 295 294 294 294 293 293 292 292 291 290 289 289 288 289 290 290 290 289 289 289 290 290 289 288 288 288 286 285 284 284 283 282 281 281 282 283 283 284 283 283 282 282 282 282 282 282 282 283 283 283 283
Height
10687 10683 10682 10682 10682 10682 10681 10680 10678 10677 10675 10674 10673 10673 10672 10671 10670 10668 10667 10665 10664 10663 10662 10660 10660 10659 10658 10657 10656 10655 10653 10652 10651 10650 10649 10648 10647 10645 10644 10643 10641 10640 10638 10637 10636 10634 10633 10631 10630 10628 10627 10625 10624 10623 10622 10621 10620 10619 10618 10616 10614 10613 10612 10611 10609 10607 10605 10606 10606 10604 10604 10604 10603 10602 10600 10600 10599 10598 10596 10596 10595 10594 10592 10590 10588
10684 10679 10678 10680 10682 10684 10684 10681 10678 10676 10673 10671 10670 10670 10670 10668 10667 10665 10664 10662 10661 10660 10659 10658 10657 10656 10655 10654 10653 10652 10650 10649 10647 10646 10645 10644 10643 10642 10641 10639 10638 10637 10635 10634 10632 10631 10629 10628 10627 10626 10624 10623 10622 10620 10619 10618 10617 10615 10614 10613 10611 10609 10608 10607 10606 10603 10601 10601 10601 10600 10599 10599 10598 10597 10596 10595 10595 10594 10592 10590 10590 10589 10588 10587 10585
10683 10679 10677 10680 10684 10687 10687 10685 10681 10675 10671 10669 10667 10667 10666 10665 10664 10663 10661 10659 10658 10657 10656 10655 10654 10653 10652 10651 10650 10649 10648 10646 10645 10643 10642 10641 10640 10638 10637 10636 10634 10633 10631 10630 10629 10627 10626 10624 10624 10623 10621 10619 10618 10617 10616 10614 10613 10612 10610 10609 10608 10606 10605 10603 10602 10600 10598 10596 10596 10595 10594 10593 10592 10592 10592 10591 10590 10589 10588 10586 10585 10584 10583 10582 10581
10684 10679 10676 10680 10686 10687 10686 10684 10679 10673 10668 10665 10663 10663 10662 10662 10661 10659 10658 10656 10655 10653 10652 10651 10650 10649 10648 10647 10646 10645 10644 10643 10641 10640 10638 10637 10636 10635 10634 10632 10631 10629 10627 10626 10624 10623 10622 10620 10619 10619 10617 10615 10614 10613 10612 10611 10609 10608 10606 10605 10604 10602 10601 10600 10598 10596 10594 10592 10591 10590 10589 10588 10587 10586 10586 10586 10585 10585 10584 10582 10580 10579 10579 10578 10576
10684 10678 10674 10676 10680 10680 10678 10676 10672 10668 10664 10661 10659 10658 10657 10657 10656 10655 10654 10653 10652 10650 10649 10648 10647 10645 10644 10643 10642 10641 10640 10639 10637 10636 10635 10634 10632 10631 10630 10629 10627 10625 10623 10622 10620 10619 10618 10617 10615 10614 10613 10612 10609 10608 10607 10607 10605 10604 10602 10601 10600 10599 10597 10595 10594 10593 10591 10588 10586 10586 10585 10584 10583 10581 10580 10580 10580 10580 10579 10578 10576 10575 10573 10572 10571
10678 10675 10671 10671 10671 10671 10670 10668 10664 10662 10659 10656 10655 10653 10652 10651 10651 10649 10648 10648 10647 10647 10646 10645 10643 10642 10640 10639 10638 10637 10635 10634 10633 10632 10631 10630 10628 10627 10626 10625 10624 10622 10620 10618 10616 10614 10613 10613 10611 10610 10608 10607 10605 10603 10602 10602 10601 10600 10598 10597 10596 10595 10593 10591 10590 10589 10587 10585 10583 10581 10580 10580 10579 10577 10575 10575 10575 10574 10572 10572 10572 10571 10569 10568 10566
10672 10669 10667 10666 10665 10664 10663 10661 10658 10656 10653 10651 10650 10648 10647 10646 10645 10644 10643 10642 10642 10641 10641 10640 10638 10637 10636 10635 10633 10632 10631 10630 10628 10627 10626 10625 10624 10622 10621 10620 10619 10618 10616 10614 10612 10610 10609 10608 10607 10605 10604 10602 10601 10599 10598 10597 10596 10595 10594 10593 10591 10591 10589 10587 10585 10584 10583 10581 10579 10577 10576 10575 10574 10573 10571 10571 10571 10569 10567 10567 10566 10565 10563 10563 10562
10667 10665 10663 10662 10660 10659 10657 10655 10653 10651 10649 10647 10645 10643 10641 10640 10640 10639 10638 10637 10636 10636 10635 10635 10634 10632 10630 10629 10628 10627 10626 10625 10623 10621 10621 10620 10618 10616 10616 10615 10614 10613 10611 10609 10608 10606 10605 10604 10603 10601 10600 10598 10596 10594 10593 10592 10591 10590 10588 10588 10587 10585 10584 10582 10581 10579 10578 10576 10575 10573 10572 10571 10569 10568 10566 10565 10565 10564 10562 10562 10561 10558 10556 10556 10556
10662 10660 10658 10657 10655 10654 10652 10651 10649 10647 10645 10643 10640 10638 10636 10634 10633 10633 10632 10631 10630 10630 10630 10630 10629 10627 10625 10623 10622 10621 10620 10618 10616 10615 10615 10614 10612 10610 10611 10610 10608 10607 10605 10604 10602 10601 10600 10599 10598 10597 10595 10593 10591 10589 10588 10587 10586 10585 10583 10582 10582 10580 10578 10577 10575 10574 10573 10572 10570 10568 10567 10566 10564 10562 10561 10560 10559 10559 10557 10556 10555 10553 10551 10550 10549
10656 10655 10653 10651 10650 10649 10647 10645 10644 10642 10640 10638 10636 10633 10631 10629 10628 10627 10626 10625 10624 10624 10624 10624 10624 10623 10621 10618 10615 10614 10614 10612 10610 10609 10608 10608 10606 10605 10604 10604 10602 10601 10599 10598 10596 10595 10594 10593 10592 10591 10590 10588 10586 10584 10583 10581 10581 10580 10578 10577 10576 10574 10573 10571 10570 10569 10568 10567 10565 10563 10561 10560 10558 10556 10555 10554 10553 10553 10551 10550 10549 10547 10545 10545 10543
10651 10649 10647 10646 10644 10644 10642 10640 10638 10637 10635 10634 10631 10628 10627 10625 10624 10623 10622 10620 10618 10618 10617 10617 10617 10617 10615 10613 10609 10607 10605 10604 10603 10603 10602 10601 10600 10599 10598 10597 10596 10595 10594 10592 10590 10589 10588 10587 10585 10584 10583 10581 10580 10578 10577 10575 10574 10574 10573 10571 10570 10568 10567 10565 10564 10563 10562 10561 10559 10557 10556 10553 10551 10550 10550 10548 10547 10546 10545 10544 10543 10541 10539 10538 10537
10645 10643 10642 10640 10639 10638 10636 10634 10633 10632 10630 10629 10627 10625 10623 10622 10621 10619 10617 10615 10614 10613 10612 10611 10611 10611 10608 10606 10603 10601 10599 10597 10596 10596 10595 10595 10594 10593 10592 10591 10590 10589 10588 10587 10585 10583 10581 10580 10579 10577 10576 10574 10573 10571 10570 10568 10567 10567 10566 10565 10563 10562 10560 10559 10558 10556 10555 10554 10553 10551 10549 10547 10546 10544 10543 10543 10542 10540 10538 10537 10536 10535 10533 10531 10531
10638 10637 10636 10635 10634 10632 10630 10628 10627 10626 10625 10625 10623 10621 10619 10618 10617 10615 10614 10612 10610 10609 10607 10605 10605 10605 10603 10600 10597 10594 10593 10592 10591 10590 10590 10589 10588 10587 10586 10584 10583 10582 10581 10580 10579 10577 10574 10573 10572 10571 10569 10567 10566 10564 10563 10562 10560 10559 10558 10557 10556 10555 10553 10552 10551 10549 10547 10547 10547 10545 10540 10539 10540 10539 10537 10536 10535 10534 10532 10530 10528 10527 10525 10524 10523
10633 10632 10631 10630 10628 10627 10625 10623 10622 10621 10620 10619 10618 10615 10613 10613 10612 10611 10609 10608 10606 10604 10602 10600 10599 10599 10598 10596 10592 10589 10588 10588 10586 10585 10584 10583 10582 10581 10579 10578 10577 10575 10574 10573 10571 10569 10567 10566 10565 10564 10562 10560 10558 10557 10556 10555 10554 10553 10551 10549 10549 10548 10547 10545 10543 10542 10540 10539 10539 10537 10532 10530 10531 10532 10531 10528 10526 10527 10526 10523 10520 10519 10517 10516 10515
10629 10628 10626 10625 10623 10622 10620 10619 10617 10615 10614 10614 10612 10610 10608 10607 10606 10605 10604 10603 10601 10599 10597 10595 10594 10593 10592 10590 10587 10585 10583 10582 10580 10579 10578 10577 10576 10574 10572 10571 10570 10569 10567 10566 10564 10562 10561 10559 10558 10556 10555 10553 10550 10549 10548 10547 10547 10546 10544 10543 10541 10541 10540 10538 10536 10535 10533 10530 10530 10529 10526 10523 10522 10523 10524 10521 10517 10517 10517 10514 10512 10511 10509 10507 10506
10624 10623 10622 10620 10619 10617 10616 10614 10612 10610 10609 10608 10606 10604 10602 10601 10600 10600 10597 10596 10595 10593 10591 10589 10587 10586 10585 10583 10581 10579 10577 10575 10574 10573 10572 10570 10569 10567 10566 10565 10563 10562 10560 10559 10557 10555 10554 10553 10550 10549 10547 10545 10543 10542 10542 10541 10539 10538 10537 10536 10534 10534 10533 10529 10527 10527 10525 10521 10521 10521 10519 10517 10514 10513 10513 10512 10509 10508 10507 10505 10503 10501 10499 10498 10497
10619 10618 10616 10615 10614 10612 10611 10609 10607 10606 10604 10603 10601 10599 10597 10595 10594 10593 10591 10589 10588 10587 10585 10583 10581 10579 10577 10575 10574 10572 10570 10569 10567 10565 10564 10563 10561 10560 10558 10557 10556 10555 10553 10552 10550 10547 10545 10544 10543 10541 10539 10538 10535 10534 10534 10534 10532 10530 10529 10528 10526 10526 10525 10521 10518 10517 10515 10513 10513 10512 10511 10509 10506 10504 10503 10502 10499 10497 10497 10497 10495 10492 10490 10488 10486
10613 10612 10610 10609 10608 10606 10605 10603 10601 10600 10598 10597 10595 10594 10592 10589 10587 10586 10584 10582 10581 10579 10578 10576 10574 10572 10570 10568 10567 10565 10563 10561 10560 10558 10556 10555 10553 10552 10551 10549 10547 10546 10545 10544 10542 10539 10536 10535 10535 10534 10532 10530 10528 10526 10525 10525 10524 10522 10520 10520 10518 10517 10516 10514 10511 10509 10506 10503 10503 10502 10502 10500 10497 10495 10494 10493 10490 10487 10486 10487 10486 10484 10482 10480 10477
10607 10605 10604 10602 10601 10600 10598 10596 10594 10593 10591 10589 10588 10587 10585 10583 10581 10579 10576 10575 10573 10571 10570 10568 10566 10564 10563 10561 10559 10557 10556 10554 10552 10551 10549 10547 10545 10544 10542 10541 10539 10538 10537 10536 10533 10530 10527 10526 10526 10525 10524 10522 10521 10519 10517 10517 10516 10513 10511 10510 10510 10508 10506 10505 10503 10501 10498 10495 10493 10491 10491 10490 10488 10486 10484 10483 10482 10480 10477 10475 10475 10473 10471 10470 10469
10601 10599 10598 10596 10594 10593 10591 10589 10587 10585 10583 10582 10580 10579 10577 10575 10573 10571 10569 10567 10565 10563 10561 10560 10557 10555 10554 10552 10550 10549 10547 10546 10544 10543 10541 10539 10537 10535 10534 10532 10530 10529 10528 10526 10524 10522 10519 10518 10517 10515 10514 10513 10512 10510 10509 10508 10507 10505 10502 10501 10500 10499 10498 10496 10494 10492 10489 10487 10484 10481 10480 10479 10477 10476 10474 10472 10471 10470 10467 10466 10464 10462 10460 10459 10458
10594 10593 10591 10589 10587 10585 10583 10582 10580 10578 10576 10574 10572 10570 10568 10567 10564 10563 10561 10558 10556 10554 10552 10550 10548 10546 10544 10542 10541 10539 10538 10536 10535 10533 10532 10530 10528 10526 10524 10523 10521 10519 10518 10516 10515 10512 10510 10509 10507 10506 10504 10503 10502 10501 10499 10498 10497 10496 10494 10492 10490 10489 10488 10487 10485 10482 10480 10478 10475 10472 10470 10469 10467 10465 10464 10462 10461 10459 10457 10455 10453 10452 10450 10448 10447
10587 10585 10583 10582 10580 10578 10576 10574 10572 10570 10568 10566 10564 10562 10560 10558 10556 10554 10552 10549 10547 10545 10543 10541 10539 10537 10535 10533 10531 10530 10528 10527 10525 10523 10522 10520 10518 10516 10514 10513 10511 10510 10508 10506 10505 10503 10501 10499 10497 10496 10494 10493 10491 10490 10489 10487 10486 10485 10484 10482 10480 10479 10478 10477 10475 10473 10471 10469 10467 10464 10461 10459 10458 10456 10454 10452 10451 10449 10447 10445 10443 10441 10439 10437 10436
10580 10578 10576 10574 10572 10570 10568 10565 10563 10561 10559 10558 10556 10553 10551 10549 10547 10545 10543 10541 10539 10536 10534 10532 10530 10528 10526 10524 10522 10520 10519 10517 10515 10513 10512 10510 10508 10506 10504 10503 10501 10499 10498 10497 10495 10493 10491 10489 10487 10486 10484 10482 10481 10479 10478 10476 10475 10473 10472 10471 10469 10468 10467 10466 10464 10462 10461 10459 10457 10455 10453 10450 10449 10447 10445 10443 10442 10440 10438 10436 10434 10432 10430 10428 10426
10571 10570 10568 10566 10564 10562 10560 10557 10555 10553 10551 10549 10547 10545 10543 10540 10538 10536 10534 10533 10531 10528 10525 10523 10521 10519 10517 10515 10513 10510 10508 10506 10504 10502 10501 10499 10497 10496 10494 10492 10491 10489 10487 10486 10484 10483 10481 10479 10477 10475 10473 10471 10469 10468 10466 10464 10463 10461 10460 10458 10457 10456 10455 10454 10453 10451 10450 10448 10446 10444 10442 10440 10438 10437 10435 10433 10432 10430 10428 10427 10425 10422 10421 10419 10417
10563 10561 10559 10557 10555 10553 10551 10549 10547 10544 10542 10540 10538 10536 10534 10532 10529 10527 10526 10524 10521 10519 10517 10514 10512 10509 10507 10505 10503 10501 10498 10496 10494 10492 10490 10488 10486 10484 10483 10481 10479 10478 10476 10474 10473 10471 10469 10467 10465 10463 10461 10459 10457 10456 10454 10452 10451 10449 10447 10446 10444 10443 10442 10441 10440 10438 10437 10436 10434 10432 10431 10429 10427 10425 10424 10422 10420 10419 10417 10416 10414 10412 10411 10409 10407
10554 10552 10550 10548 10546 10544 10542 10540 10537 10535 10533 10531 10528 10526 10524 10523 10520 10517 10516 10514 10512 10510 10507 10505 10503 10500 10497 10494 10491 10489 10487 10485 10482 10480 10478 10476 10474 10472 10471 10469 10467 10465 10463 10461 10460 10458 10456 10454 10452 10450 10448 10446 10444 10442 10441 10439 10438 10436 10435 10433 10432 10430 10429 10427 10426 10425 10424 10422 10420 10419 10418 10417 10415 10413 10411 10410 10408 10406 10405 10403 10402 10400 10399 10398 10396
10545 10543 10541 10539 10536 10534 10532 10530 10528 10526 10524 10522 10519 10517 10514 10512 10510 10508 10505 10503 10501 10499 10497 10495 10492 10489 10487 10484 10480 10477 10474 10472 10469 10467 10465 10463 10461 10459 10457 10455 10453 10451 10449 10447 10445 10444 10442 10440 10438 10436 10434 10431 10429 10428 10426 10424 10423 10422 10420 10419 10418 10416 10415 10414 10413 10412 10410 10409 10407 10406 10404 10403 10402 10400 10399 10397 10395 10393 10392 10390 10389 10387 10386 10385 10384
10536 10534 10532 10530 10527 10525 10523 10521 10519 10516 10514 10512 10510 10507 10504 10501 10498 10496 10494 10491 10489 10487 10484 10482 10480 10477 10474 10472 10469 10466 10462 10459 10456 10454 10452 10449 10447 10445 10443 10441 10439 10437 10435 10432 10431 10429 10427 10425 10423 10421 10418 10416 10414 10412 10411 10409 10408 10406 10405 10404 10403 10401 10400 10399 10398 10397 10396 10395 10393 10392 10391 10390 10388 10387 10385 10384 10382 10380 10379 10377 10376 10375 10373 10371 10370
10527 10525 10522 10520 10518 10516 10513 10511 10509 10506 10504 10501 10498 10496 10494 10491 10488 10484 10481 10478 10476 10474 10471 10469 10467 10464 10461 10458 10455 10452 10449 10446 10443 10441 10438 10436 10434 10431 10429 10426 10424 10422 10420 10418 10416 10413 10411 10409 10407 10405 10402 10401 10399 10397 10394 10392 10391 10390 10389 10387 10386 10385 10384 10383 10382 10381 10381 10380 10379 10377 10376 10375 10374 10373 10372 10370 10369 10367 10366 10364 10363 10361 10360 10358 10357
10518 10515 10512 10510 10508 10505 10503 10500 10497 10495 10493 10491 10488 10484 10481 10478 10476 10473 10470 10467 10464 10460 10458 10456 10453 10451 10448 10445 10442 10438 10435 10432 10429 10426 10424 10422 10420 10417 10415 10412 10410 10408 10406 10404 10402 10399 10396 10394 10391 10389 10387 10385 10384 10382 10379 10377 10376 10375 10373 10371 10370 10369 10368 10367 10365 10365 10364 10364 10363 10362 10360 10359 10359 10358 10357 10356 10355 10353 10352 10350 10349 10347 10346 10344 10343
10508 10505 10502 10499 10496 10494 10491 10489 10486 10483 10481 10479 10477 10475 10471 10467 10463 10459 10457 10455 10453 10449 10446 10443 10441 10438 10435 10432 10428 10425 10422 10419 10415 10412 10410 10408 10405 10403 10400 10397 10395 10393 10391 10389 10386 10384 10381 10379 10376 10374 10372 10371 10370 10367 10364 10363 10362 10360 10359 10357 10354 10353 10353 10352 10350 10349 10349 10348 10348 10346 10345 10343 10343 10343 10342 10341 10340 10339 10337 10336 10335 10333 10332 10331 10329
10498 10495 10492 10489 10486 10483 10480 10477 10474 10472 10469 10466 10463 10462 10460 10458 10455 10450 10445 10441 10439 10437 10434 10432 10429 10426 10423 10419 10416 10412 10409 10406 10402 10399 10396 10393 10391 10388 10385 10382 10380 10377 10375 10373 10371 10369 10367 10364 10362 10359 10357 10356 10356 10353 10349 10348 10347 10346 10344 10343 10340 10339 10339 10338 10336 10334 10334 10333 10333 10331 10329 10329 10328 10327 10326 10326 10325 10324 10322 10321 10320 10319 10318 10317 10316
10488 10485 10482 10479 10476 10473 10470 10467 10464 10460 10457 10453 10450 10447 10446 10444 10443 10442 10438 10433 10428 10424 10421 10419 10417 10414 10410 10406 10403 10400 10396 10392 10388 10384 10382 10379 10376 10373 10370 10367 10365 10362 10360 10358 10356 10353 10351 10349 10347 10345 10343 10341 10341 10340 10336 10334 10333 10331 10329 10328 10327 10326 10324 10323 10321 10320 10320 10320 10318 10315 10314 10315 10314 10312 10311 10310 10309 10308 10308 10308 10306 10305 10304 10303 10302
10478 10475 10471 10468 10465 10462 10459 10456 10453 10449 10445 10442 10438 10435 10432 10429 10427 10426 10426 10424 10421 10416 10411 10407 10405 10403 10398 10393 10389 10387 10382 10377 10373 10370 10367 10364 10361 10357 10355 10352 10349 10347 10345 10343 10341 10338 10336 10333 10331 10330 10328 10325 10325 10324 10322 10320 10318 10316 10314 10312 10312 10313 10312 10308 10305 10305 10305 10305 10304 10301 10299 10299 10299 10297 10296 10295 10294 10293 10294 10294 10293 10291 10290 10289 10288
10468 10465 10461 10457 10454 10451 10448 10445 10442 10439 10435 10431 10427 10424 10421 10418 10414 10411 10408 10407 10407 10406 10403 10398 10395 10394 10388 10381 10378 10374 10366 10360 10360 10358 10353 10348 10344 10341 10339 10336 10334 10331 10329 10328 10326 10323 10321 10320 10317 10315 10313 10311 10309 10308 10307 10305 10303 10302 10300 10298 10297 10297 10298 10296 10292 10290 10289 10289 10289 10287 10284 10283 10283 10282 10280 10280 10279 10278 10279 10279 10278 10277 10276 10274 10273
10457 10455 10452 10449 10445 10440 10437 10434 10431 10428 10424 10421 10417 10413 10410 10407 10403 10399 10395 10391 10388 10388 10387 10385 10384 10384 10380 10373 10371 10365 10351 10342 10344 10345 10340 10334 10329 10325 10322 10320 10317 10315 10314 10313 10311 10307 10305 10305 10303 10301 10299 10298 10296 10294 10293 10290 10288 10286 10285 10284 10282 10281 10281 10280 10278 10276 10275 10274 10274 10273 10270 10268 10267 10267 10266 10265 10264 10263 10263 10264 10264 10263 10261 10260 10259
10448 10445 10442 10440 10436 10432 10428 10424 10421 10418 10414 10410 10406 10403 10399 10395 10391 10388 10384 10380 10374 10371 10369 10365 10363 10365 10364 10362 10363 10358 10341 10328 10326 10327 10324 10320 10316 10312 10307 10303 10301 10300 10298 10297 10296 10293 10291 10289 10289 10287 10285 10284 10282 10281 10279 10277 10275 10272 10270 10269 10268 10267 10267 10265 10263 10261 10260 10258 10259 10259 10257 10254 10253 10252 10251 10250 10249 10248 10247 10248 10249 10249 10248 10246 10245
10439 10436 10433 10430 10426 10422 10418 10414 10410 10407 10403 10399 10395 10391 10388 10384 10380 10375 10372 10367 10362 10358 10354 10349 10344 10343 10342 10342 10345 10345 10334 10321 10313 10311 10309 10307 10303 10299 10294 10289 10286 10284 10282 10280 10279 10277 10275 10274 10273 10272 10271 10269 10268 10268 10266 10263 10261 10260 10258 10256 10254 10253 10252 10251 10250 10248 10247 10245 10243 10243 10242 10241 10240 10239 10238 10237 10236 10234 10233 10232 10234 10235 10234 10233 10232
10430 10427 10424 10421 10418 10414 10409 10403 10399 10395 10392 10388 10384 10380 10376 10372 10368 10363 10359 10355 10350 10345 10341 10336 10330 10327 10324 10322 10321 10322 10319 10309 10300 10297 10296 10294 10291 10287 10283 10278 10273 10270 10268 10265 10263 10260 10258 10258 10257 10255 10254 10254 10253 10252 10251 10249 10247 10246 10245 10244 10242 10239 10238 10237 10235 10234 10234 10233 10231 10229 10228 10227 10226 10226 10225 10224 10223 10222 10221 10220 10219 10219 10220 10220 10219
10421 10418 10414 10410 10407 10405 10401 10397 10391 10386 10382 10377 10372 10368 10364 10360 10356 10351 10347 10342 10337 10332 10327 10322 10317 10314 10312 10308 10304 10303 10300 10293 10286 10282 10281 10278 10276 10273 10270 10266 10262 10259 10256 10254 10250 10245 10244 10244 10242 10239 10239 10238 10237 10236 10235 10234 10232 10231 10230 10230 10228 10227 10225 10224 10222 10222 10222 10220 10219 10217 10216 10216 10214 10212 10211 10211 10210 10209 10208 10207 10206 10205 10205 10205 10205
10411 10408 10405 10401 10396 10392 10389 10386 10383 10379 10374 10368 10362 10357 10352 10347 10342 10339 10335 10331 10326 10319 10313 10308 10303 10299 10297 10294 10291 10288 10285 10279 10272 10268 10265 10262 10259 10257 10254 10251 10249 10247 10245 10242 10237 10234 10233 10231 10228 10227 10227 10225 10223 10222 10220 10219 10217 10216 10215 10215 10214 10213 10211 10210 10210 10211 10210 10208 10205 10204 10204 10204 10204 10202 10200 10199 10198 10197 10196 10195 10193 10192 10192 10191 10190
10399 10397 10394 10391 10387 10382 10378 10374 10371 10368 10365 10361 10356 10350 10344 10337 10331 10325 10320 10318 10315 10309 10302 10296 10290 10285 10281 10279 10277 10274 10272 10267 10261 10255 10250 10247 10244 10242 10239 10237 10235 10234 10232 10228 10225 10224 10222 10219 10216 10216 10215 10213 10211 10210 10208 10206 10205 10203 10201 10200 10200 10199 10197 10197 10197 10198 10198 10197 10194 10192 10191 10191 10191 10190 10190 10189 10187 10186 10184 10183 10182 10181 10179 10178 10177
10387 10383 10380 10378 10374 10371 10367 10362 10358 10354 10350 10348 10344 10340 10335 10329 10322 10315 10309 10305 10301 10296 10291 10284 10277 10271 10267 10265 10262 10259 10257 10254 10249 10243 10238 10234 10231 10228 10226 10224 10222 10221 10218 10215 10213 10213 10211 10208 10206 10205 10203 10201 10200 10199 10197 10195 10193 10192 10190 10189 10187 10185 10184 10184 10184 10183 10183 10183 10183 10181 10180 10179 10178 10178 10177 10177 10177 10175 10173 10172 10170 10169 10168 10166 10165
10372 10368 10364 10362 10359 10355 10352 10348 10344 10340 10337 10334 10331 10328 10324 10318 10311 10304 10298 10293 10288 10283 10277 10270 10264 10258 10255 10251 10247 10245 10244 10242 10237 10231 10226 10223 10219 10216 10213 10211 10210 10208 10205 10202 10202 10202 10200 10197 10196 10194 10192 10191 10190 10188 10186 10185 10183 10181 10180 10178 10175 10173 10173 10173 10172 10170 10169 10169 10169 10168 10168 10167 10167 10166 10165 10165 10165 10164 10162 10160 10159 10158 10156 10155 10154
10363 10357 10352 10348 10345 10341 10337 10334 10329 10325 10321 10318 10315 10313 10310 10306 10299 10291 10285 10280 10276 10271 10265 10257 10250 10246 10243 10238 10234 10232 10231 10229 10225 10220 10216 10212 10209 10205 10201 10198 10198 10196 10193 10191 10191 10190 10189 10187 10185 10183 10181 10180 10179 10177 10176 10174 10172 10171 10170 10166 10163 10162 10163 10162 10161 10159 10158 10157 10156 10156 10155 10155 10155 10154 10154 10153 10152 10151 10150 10149 10148 10147 10146 10144 10144
10352 10345 10340 10335 10331 10326 10321 10317 10313 10309 10305 10300 10296 10293 10291 10289 10284 10277 10271 10266 10262 10258 10253 10245 10237 10232 10229 10225 10221 10219 10218 10216 10212 10209 10206 10202 10199 10196 10192 10188 10187 10185 10183 10181 10180 10179 10178 10177 10174 10173 10171 10170 10168 10167 10165 10163 10162 10162 10159 10155 10153 10153 10153 10151 10150 10149 10148 10147 10146 10146 10145 10144 10144 10143 10142 10141 10140 10139 10138 10138 10137 10136 10134 10134 10133
10334 10328 10323 10319 10315 10311 10304 10298 10293 10291 10289 10283 10277 10272 10270 10269 10264 10258 10254 10251 10247 10243 10241 10235 10226 10219 10215 10212 10209 10207 10206 10203 10200 10197 10195 10192 10189 10187 10183 10180 10178 10176 10173 10171 10169 10169 10168 10167 10165 10163 10161 10159 10158 10157 10156 10154 10153 10152 10149 10144 10143 10143 10142 10141 10140 10139 10138 10137 10137 10136 10135 10135 10134 10134 10133 10131 10129 10129 10128 10128 10126 10124 10124 10124 10123
10315 10311 10306 10301 10298 10295 10289 10282 10275 10272 10271 10266 10258 10252 10250 10249 10245 10240 10237 10233 10230 10228 10227 10223 10215 10208 10203 10200 10197 10195 10194 10192 10189 10186 10184 10181 10179 10176 10174 10171 10169 10167 10165 10162 10159 10158 10158 10157 10155 10154 10151 10149 10148 10147 10146 10145 10144 10142 10138 10134 10134 10134 10133 10132 10131 10130 10129 10128 10127 10126 10126 10126 10125 10124 10123 10121 10120 10120 10120 10118 10115 10112 10113 10115 10114
10301 10295 10290 10285 10281 10279 10274 10268 10262 10257 10254 10249 10244 10238 10233 10229 10226 10224 10222 10218 10214 10212 10211 10207 10202 10197 10193 10189 10187 10184 10182 10181 10179 10176 10173 10171 10169 10167 10164 10162 10160 10158 10156 10154 10151 10149 10148 10146 10145 10144 10142 10140 10139 10137 10137 10136 10135 10132 10128 10125 10124 10124 10123 10123 10122 10122 10120 10119 10117 10117 10117 10117 10117 10115 10114 10113 10112 10111 10110 10108 10105 10103 10105 10106 10106
10290 10284 10277 10271 10267 10263 10258 10253 10248 10243 10238 10234 10229 10224 10218 10212 10210 10211 10210 10206 10202 10199 10196 10192 10189 10187 10183 10179 10177 10174 10172 10170 10169 10166 10163 10161 10159 10157 10155 10153 10151 10149 10147 10145 10143 10140 10138 10136 10135 10134 10133 10132 10130 10128 10127 10127 10125 10122 10120 10118 10116 10113 10112 10112 10113 10112 10111 10109 10108 10108 10108 10108 10107 10105 10104 10105 10104 10102 10100 10099 10098 10097 10097 10098 10098
10277 10272 10266 10260 10255 10251 10245 10239 10234 10230 10226 10221 10215 10209 10202 10197 10196 10197 10197 10194 10191 10188 10184 10180 10178 10176 10173 10170 10167 10165 10162 10160 10158 10156 10154 10151 10149 10147 10145 10144 10142 10140 10138 10136 10134 10132 10130 10128 10126 10125 10124 10123 10122 10120 10119 10118 10115 10112 10111 10109 10106 10104 10103 10103 10102 10101 10101 10100 10099 10099 10099 10098 10097 10095 10094 10096 10096 10093 10091 10091 10091 10091 10090 10089 10089